Location: Boissi�res
(45.2500°N, 2.3667°E)
Time: 22:55:32
(UTC+00:00)

ISS - Pass Details

Date: 22 September 2021
Orbit: 417 x 423 km, 51.6° (Epoch: 18 October)

Event Time Altitude Azimuth Distance (km) Brightness Sun altitude
Rises 18:49:50 0° 262° (W) 2,358 1.6 -11.7°
Reaches altitude 10° 18:52:00 10° 271° (W) 1,497 0.5 -12.0°
Maximum altitude 18:55:11 39° 342° (NNW) 643 -2.6 -12.6°
Enters shadow 18:58:06 12° 52° (NE) 1,396 -1.5 -13.1°
